Time,TemperatureF,DewpointF,PressureIn,WindDirection,WindDirectionDegrees,WindSpeedMPH,WindSpeedGustMPH,Humidity,HourlyPrecipIn,Conditions,Clouds,dailyrainin,SoftwareType,DateUTC
2013-04-20 00:01:00,37.7,32.7,30.02,SW,215,6.0,6.0,82,0.00,,,0.00,Wunderground v.1.15,2013-04-20 04:01:00,
2013-04-20 00:02:00,37.7,32.7,30.02,SW,233,0.0,6.0,82,0.00,,,0.00,Wunderground v.1.15,2013-04-20 04:02:00,
2013-04-20 00:03:00,37.7,32.7,30.02,WSW,241,8.0,8.0,82,0.00,,,0.00,Wunderground v.1.15,2013-04-20 04:03:00,
2013-04-20 00:05:00,37.8,32.8,30.02,SW,236,5.0,8.0,82,0.00,,,0.00,Wunderground v.1.15,2013-04-20 04:05:00,
2013-04-20 00:07:00,37.8,32.8,30.02,WSW,248,2.0,8.0,82,0.00,,,0.00,Wunderground v.1.15,2013-04-20 04:07:00,
2013-04-20 00:12:00,37.8,33.1,30.03,SSW,213,3.0,4.0,83,0.00,,,0.00,Wunderground v.1.15,2013-04-20 04:12:00,
2013-04-20 00:18:00,37.7,33.0,30.03,SSW,209,2.0,5.0,83,0.00,,,0.00,Wunderground v.1.15,2013-04-20 04:18:00,
2013-04-20 00:24:00,37.7,33.0,30.03,South,186,5.0,8.0,83,0.00,,,0.00,Wunderground v.1.15,2013-04-20 04:24:00,
2013-04-20 00:29:00,37.7,33.3,30.03,West,265,4.0,11.0,84,0.00,,,0.00,Wunderground v.1.15,2013-04-20 04:29:00,
2013-04-20 00:35:00,37.6,33.5,30.03,SW,234,2.0,5.0,85,0.00,,,0.00,Wunderground v.1.15,2013-04-20 04:35:00,
2013-04-20 00:41:00,37.4,33.3,30.03,WSW,244,2.0,4.0,85,0.00,,,0.00,Wunderground v.1.15,2013-04-20 04:41:00,
2013-04-20 00:47:00,37.2,33.4,30.03,WSW,238,1.0,7.0,86,0.00,,,0.00,Wunderground v.1.15,2013-04-20 04:47:00,
2013-04-20 00:52:00,37.0,33.5,30.04,SW,219,1.0,7.0,87,0.00,,,0.00,Wunderground v.1.15,2013-04-20 04:52:00,
2013-04-20 00:58:00,37.0,33.5,30.04,SW,234,2.0,7.0,87,0.00,,,0.00,Wunderground v.1.15,2013-04-20 04:58:00,
2013-04-20 01:03:00,36.8,33.6,30.04,SSW,200,2.0,4.0,88,0.00,,,0.00,Wunderground v.1.15,2013-04-20 05:03:00,
2013-04-20 01:09:00,36.8,33.6,30.04,WSW,240,4.0,4.0,88,0.00,,,0.00,Wunderground v.1.15,2013-04-20 05:09:00,
2013-04-20 01:14:00,36.7,33.5,30.05,WNW,296,0.0,3.0,88,0.00,,,0.00,Wunderground v.1.15,2013-04-20 05:14:00,
2013-04-20 01:19:00,36.6,33.4,30.05,West,261,3.0,3.0,88,0.00,,,0.00,Wunderground v.1.15,2013-04-20 05:19:00,
2013-04-20 01:25:00,36.6,33.4,30.05,West,267,3.0,4.0,88,0.00,,,0.00,Wunderground v.1.15,2013-04-20 05:25:00,
2013-04-20 01:31:00,36.5,33.6,30.04,SW,236,3.0,4.0,89,0.00,,,0.00,Wunderground v.1.15,2013-04-20 05:31:00,
2013-04-20 01:37:00,36.4,33.5,30.05,SSW,208,1.0,4.0,89,0.00,,,0.00,Wunderground v.1.15,2013-04-20 05:37:00,
2013-04-20 01:43:00,36.4,33.5,30.05,West,263,2.0,3.0,89,0.00,,,0.00,Wunderground v.1.15,2013-04-20 05:43:00,
2013-04-20 01:49:00,36.5,33.6,30.05,SW,230,0.0,3.0,89,0.00,,,0.00,Wunderground v.1.15,2013-04-20 05:49:00,
2013-04-20 01:54:00,36.4,33.5,30.06,SSW,207,2.0,3.0,89,0.00,,,0.00,Wunderground v.1.15,2013-04-20 05:54:00,
2013-04-20 01:59:00,36.5,33.6,30.06,West,268,3.0,4.0,89,0.00,,,0.00,Wunderground v.1.15,2013-04-20 05:59:00,
2013-04-20 02:04:00,36.6,33.7,30.05,WNW,295,0.0,4.0,89,0.00,,,0.00,Wunderground v.1.15,2013-04-20 06:04:00,
2013-04-20 02:09:00,36.7,33.8,30.05,WSW,243,0.0,6.0,89,0.00,,,0.00,Wunderground v.1.15,2013-04-20 06:09:00,
2013-04-20 02:14:00,36.7,33.8,30.05,WSW,238,0.0,4.0,89,0.00,,,0.00,Wunderground v.1.15,2013-04-20 06:14:00,
2013-04-20 02:20:00,36.6,33.7,30.05,SW,232,1.0,1.0,89,0.00,,,0.00,Wunderground v.1.15,2013-04-20 06:20:00,
2013-04-20 02:25:00,36.5,33.6,30.05,West,265,0.0,4.0,89,0.00,,,0.00,Wunderground v.1.15,2013-04-20 06:25:00,
2013-04-20 02:30:00,36.4,33.5,30.05,WSW,253,0.0,1.0,89,0.00,,,0.00,Wunderground v.1.15,2013-04-20 06:30:00,
2013-04-20 02:35:00,36.2,33.3,30.05,WSW,253,0.0,2.0,89,0.00,,,0.00,Wunderground v.1.15,2013-04-20 06:35:00,
2013-04-20 02:40:00,36.1,33.2,30.05,WSW,246,0.0,2.0,89,0.00,,,0.00,Wunderground v.1.15,2013-04-20 06:40:00,
2013-04-20 02:45:00,36.1,33.2,30.05,SW,231,0.0,3.0,89,0.00,,,0.00,Wunderground v.1.15,2013-04-20 06:45:00,
2013-04-20 02:50:00,36.0,33.1,30.05,SSW,206,3.0,3.0,89,0.00,,,0.00,Wunderground v.1.15,2013-04-20 06:50:00,
2013-04-20 02:56:00,35.9,33.0,30.05,West,264,1.0,3.0,89,0.00,,,0.00,Wunderground v.1.15,2013-04-20 06:56:00,
2013-04-20 03:00:00,35.9,33.0,30.05,WSW,250,3.0,3.0,89,0.00,,,0.00,Wunderground v.1.15,2013-04-20 07:00:00,
2013-04-20 03:05:00,35.9,33.0,30.05,SW,227,1.0,4.0,89,0.00,,,0.00,Wunderground v.1.15,2013-04-20 07:05:00,
2013-04-20 03:10:00,35.9,33.0,30.05,SSW,202,3.0,4.0,89,0.00,,,0.00,Wunderground v.1.15,2013-04-20 07:10:00,
2013-04-20 03:15:00,35.9,33.0,30.06,SW,235,2.0,4.0,89,0.00,,,0.00,Wunderground v.1.15,2013-04-20 07:15:00,
2013-04-20 03:20:00,35.9,33.0,30.06,WSW,250,1.0,2.0,89,0.00,,,0.00,Wunderground v.1.15,2013-04-20 07:20:00,
2013-04-20 03:25:00,35.9,33.3,30.06,WSW,250,1.0,4.0,90,0.00,,,0.00,Wunderground v.1.15,2013-04-20 07:25:00,
2013-04-20 03:30:00,36.0,33.4,30.06,SSW,209,2.0,3.0,90,0.00,,,0.00,Wunderground v.1.15,2013-04-20 07:30:00,
2013-04-20 03:35:00,36.1,33.5,30.06,WSW,250,1.0,3.0,90,0.00,,,0.00,Wunderground v.1.15,2013-04-20 07:35:00,
2013-04-20 03:41:00,36.1,33.5,30.06,SSW,200,2.0,3.0,90,0.00,,,0.00,Wunderground v.1.15,2013-04-20 07:41:00,
2013-04-20 03:46:00,36.1,33.5,30.06,SW,214,0.0,3.0,90,0.00,,,0.00,Wunderground v.1.15,2013-04-20 07:46:00,
2013-04-20 03:51:00,36.1,33.5,30.07,SW,214,2.0,2.0,90,0.00,,,0.00,Wunderground v.1.15,2013-04-20 07:51:00,
2013-04-20 03:56:00,36.0,33.4,30.07,WSW,238,0.0,2.0,90,0.00,,,0.00,Wunderground v.1.15,2013-04-20 07:56:00,
2013-04-20 04:01:00,35.9,33.3,30.07,WSW,238,0.0,2.0,90,0.00,,,0.00,Wunderground v.1.15,2013-04-20 08:01:00,
2013-04-20 04:06:00,35.9,33.3,30.08,West,265,2.0,4.0,90,0.00,,,0.00,Wunderground v.1.15,2013-04-20 08:06:00,
2013-04-20 04:11:00,36.0,33.4,30.08,SW,234,1.0,3.0,90,0.00,,,0.00,Wunderground v.1.15,2013-04-20 08:11:00,
2013-04-20 04:16:00,36.2,33.5,30.08,SSW,213,2.0,5.0,90,0.00,,,0.00,Wunderground v.1.15,2013-04-20 08:16:00,
2013-04-20 04:21:00,36.3,33.6,30.08,WSW,246,2.0,5.0,90,0.00,,,0.00,Wunderground v.1.15,2013-04-20 08:21:00,
2013-04-20 04:27:00,36.3,33.6,30.08,SSW,203,1.0,5.0,90,0.00,,,0.00,Wunderground v.1.15,2013-04-20 08:27:00,
2013-04-20 04:32:00,36.2,33.3,30.08,SSW,204,1.0,3.0,89,0.00,,,0.00,Wunderground v.1.15,2013-04-20 08:32:00,
2013-04-20 04:37:00,36.1,33.2,30.08,WSW,253,3.0,7.0,89,0.00,,,0.00,Wunderground v.1.15,2013-04-20 08:37:00,
2013-04-20 04:42:00,36.0,33.1,30.09,WSW,253,1.0,5.0,89,0.00,,,0.00,Wunderground v.1.15,2013-04-20 08:42:00,
2013-04-20 04:47:00,35.9,33.3,30.08,SW,223,0.0,5.0,90,0.00,,,0.00,Wunderground v.1.15,2013-04-20 08:47:00,
2013-04-20 04:52:00,35.9,33.3,30.08,West,263,4.0,7.0,90,0.00,,,0.00,Wunderground v.1.15,2013-04-20 08:52:00,
2013-04-20 04:57:00,35.8,32.9,30.09,West,261,2.0,7.0,89,0.00,,,0.00,Wunderground v.1.15,2013-04-20 08:57:00,
2013-04-20 05:02:00,35.8,32.9,30.09,WSW,242,1.0,3.0,89,0.00,,,0.00,Wunderground v.1.15,2013-04-20 09:02:00,
2013-04-20 05:08:00,35.7,32.8,30.10,WSW,258,4.0,5.0,89,0.00,,,0.00,Wunderground v.1.15,2013-04-20 09:08:00,
2013-04-20 05:13:00,35.7,32.8,30.10,West,261,0.0,3.0,89,0.00,,,0.00,Wunderground v.1.15,2013-04-20 09:13:00,
2013-04-20 05:18:00,35.7,33.1,30.10,West,267,2.0,4.0,90,0.00,,,0.00,Wunderground v.1.15,2013-04-20 09:18:00,
2013-04-20 05:23:00,35.6,32.7,30.10,West,267,1.0,4.0,89,0.00,,,0.00,Wunderground v.1.15,2013-04-20 09:23:00,
2013-04-20 05:28:00,35.5,32.6,30.10,West,265,1.0,4.0,89,0.00,,,0.00,Wunderground v.1.15,2013-04-20 09:28:00,
2013-04-20 05:33:00,35.4,32.5,30.10,West,261,2.0,4.0,89,0.00,,,0.00,Wunderground v.1.15,2013-04-20 09:33:00,
2013-04-20 05:39:00,35.4,32.5,30.11,West,268,0.0,4.0,89,0.00,,,0.00,Wunderground v.1.15,2013-04-20 09:39:00,
2013-04-20 05:44:00,35.3,32.4,30.11,SW,234,1.0,4.0,89,0.00,,,0.00,Wunderground v.1.15,2013-04-20 09:44:00,
2013-04-20 05:49:00,35.3,32.4,30.11,West,267,6.0,7.0,89,0.00,,,0.00,Wunderground v.1.15,2013-04-20 09:49:00,
2013-04-20 05:54:00,35.3,32.4,30.11,WSW,250,4.0,7.0,89,0.00,,,0.00,Wunderground v.1.15,2013-04-20 09:54:00,
2013-04-20 05:59:00,35.3,32.4,30.12,West,271,2.0,7.0,89,0.00,,,0.00,Wunderground v.1.15,2013-04-20 09:59:00,
2013-04-20 06:04:00,35.2,32.3,30.12,West,264,1.0,4.0,89,0.00,,,0.00,Wunderground v.1.15,2013-04-20 10:04:00,
2013-04-20 06:09:00,35.2,32.3,30.12,West,263,2.0,6.0,89,0.00,,,0.00,Wunderground v.1.15,2013-04-20 10:09:00,
2013-04-20 06:14:00,35.1,32.2,30.12,WSW,249,0.0,4.0,89,0.00,,,0.00,Wunderground v.1.15,2013-04-20 10:14:00,
2013-04-20 06:19:00,35.1,32.2,30.12,WSW,253,0.0,4.0,89,0.00,,,0.00,Wunderground v.1.15,2013-04-20 10:19:00,
2013-04-20 06:25:00,35.0,32.1,30.12,WSW,257,0.0,3.0,89,0.00,,,0.00,Wunderground v.1.15,2013-04-20 10:25:00,
2013-04-20 06:30:00,34.9,32.0,30.12,West,268,0.0,1.0,89,0.00,,,0.00,Wunderground v.1.15,2013-04-20 10:30:00,
2013-04-20 06:35:00,34.7,31.8,30.13,WNW,287,0.0,3.0,89,0.00,,,0.00,Wunderground v.1.15,2013-04-20 10:35:00,
2013-04-20 06:40:00,34.7,32.1,30.13,West,275,3.0,3.0,90,0.00,,,0.00,Wunderground v.1.15,2013-04-20 10:40:00,
2013-04-20 06:45:00,34.6,32.0,30.13,West,279,0.0,5.0,90,0.00,,,0.00,Wunderground v.1.15,2013-04-20 10:45:00,
2013-04-20 06:50:00,34.5,31.9,30.13,WSW,249,2.0,3.0,90,0.00,,,0.00,Wunderground v.1.15,2013-04-20 10:50:00,
2013-04-20 06:55:00,34.4,31.8,30.13,West,263,0.0,3.0,90,0.00,,,0.00,Wunderground v.1.15,2013-04-20 10:55:00,
2013-04-20 07:00:00,34.4,31.8,30.14,West,263,0.0,1.0,90,0.00,,,0.00,Wunderground v.1.15,2013-04-20 11:00:00,
2013-04-20 07:05:00,34.3,31.7,30.14,West,263,2.0,2.0,90,0.00,,,0.00,Wunderground v.1.15,2013-04-20 11:05:00,
2013-04-20 07:10:00,34.3,31.7,30.14,West,263,2.0,2.0,90,0.00,,,0.00,Wunderground v.1.15,2013-04-20 11:10:00,
2013-04-20 07:15:00,34.3,31.7,30.15,West,263,2.0,2.0,90,0.00,,,0.00,Wunderground v.1.15,2013-04-20 11:15:00,
2013-04-20 07:20:00,34.3,31.7,30.15,West,264,2.0,4.0,90,0.00,,,0.00,Wunderground v.1.15,2013-04-20 11:20:00,
2013-04-20 07:25:00,34.3,31.7,30.15,West,261,2.0,7.0,90,0.00,,,0.00,Wunderground v.1.15,2013-04-20 11:25:00,
2013-04-20 07:30:00,34.5,31.9,30.15,West,260,2.0,4.0,90,0.00,,,0.00,Wunderground v.1.15,2013-04-20 11:30:00,
2013-04-20 07:35:00,34.6,32.0,30.16,West,271,1.0,4.0,90,0.00,,,0.00,Wunderground v.1.15,2013-04-20 11:35:00,
2013-04-20 07:40:00,34.8,31.9,30.16,West,265,6.0,6.0,89,0.00,,,0.00,Wunderground v.1.15,2013-04-20 11:40:00,
2013-04-20 07:45:00,35.1,32.2,30.16,West,267,1.0,8.0,89,0.00,,,0.00,Wunderground v.1.15,2013-04-20 11:45:00,
2013-04-20 07:50:00,35.4,32.2,30.16,West,262,3.0,3.0,88,0.00,,,0.00,Wunderground v.1.15,2013-04-20 11:50:00,
2013-04-20 07:56:00,35.6,32.1,30.17,WNW,282,0.0,7.0,87,0.00,,,0.00,Wunderground v.1.15,2013-04-20 11:56:00,
2013-04-20 08:01:00,35.9,32.1,30.17,WSW,249,2.0,6.0,86,0.00,,,0.00,Wunderground v.1.15,2013-04-20 12:01:00,
2013-04-20 08:06:00,36.2,31.8,30.18,West,276,3.0,8.0,84,0.00,,,0.00,Wunderground v.1.15,2013-04-20 12:06:00,
2013-04-20 08:11:00,36.5,33.6,30.18,WNW,285,4.0,8.0,89,0.00,,,0.00,Wunderground v.1.15,2013-04-20 12:11:00,
2013-04-20 08:16:00,36.8,32.1,30.18,West,279,2.0,8.0,83,0.00,,,0.00,Wunderground v.1.15,2013-04-20 12:16:00,
2013-04-20 08:21:00,37.0,32.3,30.18,West,264,3.0,7.0,83,0.00,,,0.00,Wunderground v.1.15,2013-04-20 12:21:00,
2013-04-20 08:26:00,37.2,32.2,30.19,West,269,6.0,8.0,82,0.00,,,0.00,Wunderground v.1.15,2013-04-20 12:26:00,
2013-04-20 08:31:00,37.4,31.8,30.19,NW,320,6.0,8.0,80,0.00,,,0.00,Wunderground v.1.15,2013-04-20 12:31:00,
2013-04-20 08:36:00,37.5,31.9,30.19,West,265,3.0,11.0,80,0.00,,,0.00,Wunderground v.1.15,2013-04-20 12:36:00,
2013-04-20 08:41:00,37.7,32.1,30.19,WSW,255,4.0,7.0,80,0.00,,,0.00,Wunderground v.1.15,2013-04-20 12:41:00,
2013-04-20 08:46:00,37.9,32.3,30.20,West,276,2.0,8.0,80,0.00,,,0.00,Wunderground v.1.15,2013-04-20 12:46:00,
2013-04-20 08:51:00,38.0,31.7,30.20,West,267,2.0,8.0,78,0.00,,,0.00,Wunderground v.1.15,2013-04-20 12:51:00,
2013-04-20 08:56:00,38.1,31.2,30.20,WNW,284,7.0,12.0,76,0.00,,,0.00,Wunderground v.1.15,2013-04-20 12:56:00,
2013-04-20 09:01:00,38.2,31.3,30.20,WNW,302,3.0,10.0,76,0.00,,,0.00,Wunderground v.1.15,2013-04-20 13:01:00,
2013-04-20 09:07:00,38.4,31.5,30.21,NW,319,3.0,14.0,76,0.00,,,0.00,Wunderground v.1.15,2013-04-20 13:07:00,
2013-04-20 09:12:00,38.5,31.6,30.21,NW,317,5.0,9.0,76,0.00,,,0.00,Wunderground v.1.15,2013-04-20 13:12:00,
2013-04-20 09:17:00,38.7,31.5,30.21,WSW,251,8.0,9.0,75,0.00,,,0.00,Wunderground v.1.15,2013-04-20 13:17:00,
2013-04-20 09:22:00,39.0,31.4,30.21,NNW,344,4.0,6.0,74,0.00,,,0.00,Wunderground v.1.15,2013-04-20 13:22:00,
2013-04-20 09:27:00,39.3,31.7,30.22,North,355,2.0,9.0,74,0.00,,,0.00,Wunderground v.1.15,2013-04-20 13:27:00,
2013-04-20 09:32:00,39.4,31.5,30.22,NW,309,4.0,9.0,73,0.00,,,0.00,Wunderground v.1.15,2013-04-20 13:32:00,
2013-04-20 09:37:00,39.5,31.2,30.22,WNW,282,1.0,12.0,72,0.00,,,0.00,Wunderground v.1.15,2013-04-20 13:37:00,
2013-04-20 09:42:00,39.6,31.0,30.22,West,263,0.0,5.0,71,0.00,,,0.00,Wunderground v.1.15,2013-04-20 13:42:00,
2013-04-20 09:47:00,39.7,30.7,30.22,NW,315,4.0,11.0,70,0.00,,,0.00,Wunderground v.1.15,2013-04-20 13:47:00,
2013-04-20 09:53:00,40.0,31.7,30.22,WNW,282,2.0,10.0,72,0.00,,,0.00,Wunderground v.1.15,2013-04-20 13:53:00,
2013-04-20 09:58:00,40.4,31.0,30.23,West,269,7.0,10.0,69,0.00,,,0.00,Wunderground v.1.15,2013-04-20 13:58:00,
2013-04-20 10:03:00,40.5,31.1,30.23,West,278,11.0,11.0,69,0.00,,,0.00,Wunderground v.1.15,2013-04-20 14:03:00,
2013-04-20 10:08:00,40.6,30.5,30.23,WSW,242,2.0,11.0,67,0.00,,,0.00,Wunderground v.1.15,2013-04-20 14:08:00,
2013-04-20 10:14:00,40.6,29.4,30.24,WNW,282,3.0,10.0,64,0.00,,,0.00,Wunderground v.1.15,2013-04-20 14:14:00,
2013-04-20 10:19:00,40.5,29.7,30.24,NW,318,3.0,10.0,65,0.00,,,0.00,Wunderground v.1.15,2013-04-20 14:19:00,
2013-04-20 10:24:00,40.8,29.6,30.24,WNW,285,9.0,10.0,64,0.00,,,0.00,Wunderground v.1.15,2013-04-20 14:24:00,
2013-04-20 10:29:00,40.8,28.8,30.25,WSW,258,6.0,13.0,62,0.00,,,0.00,Wunderground v.1.15,2013-04-20 14:29:00,
2013-04-20 10:34:00,40.8,29.2,30.25,West,268,7.0,9.0,63,0.00,,,0.00,Wunderground v.1.15,2013-04-20 14:34:00,
2013-04-20 10:39:00,40.8,28.8,30.25,West,267,4.0,9.0,62,0.00,,,0.00,Wunderground v.1.15,2013-04-20 14:39:00,
2013-04-20 10:44:00,40.9,28.9,30.25,WSW,257,4.0,8.0,62,0.00,,,0.00,Wunderground v.1.15,2013-04-20 14:44:00,
2013-04-20 10:49:00,41.1,28.7,30.25,West,271,7.0,11.0,61,0.00,,,0.00,Wunderground v.1.15,2013-04-20 14:49:00,
2013-04-20 10:54:00,41.2,29.5,30.25,West,279,6.0,11.0,63,0.00,,,0.00,Wunderground v.1.15,2013-04-20 14:54:00,
2013-04-20 11:00:00,41.5,29.8,30.25,WSW,250,8.0,8.0,63,0.00,,,0.00,Wunderground v.1.15,2013-04-20 15:00:00,
2013-04-20 11:05:00,41.9,31.0,30.26,WSW,252,7.0,13.0,65,0.00,,,0.00,Wunderground v.1.15,2013-04-20 15:05:00,
2013-04-20 11:10:00,42.1,30.8,30.26,NNE,33,4.0,4.0,64,0.00,,,0.00,Wunderground v.1.15,2013-04-20 15:10:00,
2013-04-20 11:15:00,42.4,30.7,30.26,West,279,6.0,8.0,63,0.00,,,0.00,Wunderground v.1.15,2013-04-20 15:15:00,
2013-04-20 11:20:00,42.2,29.7,30.27,WSW,243,5.0,8.0,61,0.00,,,0.00,Wunderground v.1.15,2013-04-20 15:20:00,
2013-04-20 11:25:00,42.2,30.9,30.27,NNE,13,4.0,11.0,64,0.00,,,0.00,Wunderground v.1.15,2013-04-20 15:25:00,
2013-04-20 11:31:00,42.5,31.2,30.27,West,275,12.0,12.0,64,0.00,,,0.00,Wunderground v.1.15,2013-04-20 15:31:00,
2013-04-20 11:36:00,42.6,30.1,30.27,WNW,282,2.0,12.0,61,0.00,,,0.00,Wunderground v.1.15,2013-04-20 15:36:00,
2013-04-20 11:41:00,43.0,30.5,30.27,NNW,329,9.0,10.0,61,0.00,,,0.00,Wunderground v.1.15,2013-04-20 15:41:00,
2013-04-20 11:47:00,43.0,30.5,30.27,WNW,292,7.0,10.0,61,0.00,,,0.00,Wunderground v.1.15,2013-04-20 15:47:00,
2013-04-20 11:52:00,43.1,29.7,30.27,NW,312,4.0,10.0,59,0.00,,,0.00,Wunderground v.1.15,2013-04-20 15:52:00,
2013-04-20 11:57:00,43.1,30.1,30.27,West,264,7.0,10.0,60,0.00,,,0.00,Wunderground v.1.15,2013-04-20 15:57:00,
2013-04-20 12:02:00,43.3,31.1,30.28,WNW,286,10.0,10.0,62,0.00,,,0.00,Wunderground v.1.15,2013-04-20 16:02:00,
2013-04-20 12:07:00,43.8,31.2,30.27,SW,232,0.0,13.0,61,0.00,,,0.00,Wunderground v.1.15,2013-04-20 16:07:00,
2013-04-20 12:12:00,44.1,30.7,30.28,NNW,348,5.0,9.0,59,0.00,,,0.00,Wunderground v.1.15,2013-04-20 16:12:00,
2013-04-20 12:17:00,44.3,30.9,30.28,West,270,6.0,10.0,59,0.00,,,0.00,Wunderground v.1.15,2013-04-20 16:17:00,
2013-04-20 12:22:00,44.2,31.6,30.28,WNW,297,8.0,9.0,61,0.00,,,0.00,Wunderground v.1.15,2013-04-20 16:22:00,
2013-04-20 12:28:00,43.9,29.2,30.28,WNW,284,2.0,9.0,56,0.00,,,0.00,Wunderground v.1.15,2013-04-20 16:28:00,
2013-04-20 12:33:00,44.0,30.2,30.28,WNW,285,3.0,8.0,58,0.00,,,0.00,Wunderground v.1.15,2013-04-20 16:33:00,
2013-04-20 12:38:00,44.8,31.8,30.28,WSW,255,3.0,8.0,60,0.00,,,0.00,Wunderground v.1.15,2013-04-20 16:38:00,
2013-04-20 12:43:00,45.3,31.8,30.28,North,360,5.0,10.0,59,0.00,,,0.00,Wunderground v.1.15,2013-04-20 16:43:00,
2013-04-20 12:48:00,45.1,31.2,30.28,West,261,4.0,12.0,58,0.00,,,0.00,Wunderground v.1.15,2013-04-20 16:48:00,
2013-04-20 12:53:00,45.2,30.9,30.28,SW,235,4.0,8.0,57,0.00,,,0.00,Wunderground v.1.15,2013-04-20 16:53:00,
2013-04-20 12:58:00,45.5,30.3,30.28,WNW,294,7.0,9.0,55,0.00,,,0.00,Wunderground v.1.15,2013-04-20 16:58:00,
2013-04-20 13:04:00,45.7,30.9,30.28,North,355,5.0,10.0,56,0.00,,,0.00,Wunderground v.1.15,2013-04-20 17:04:00,
2013-04-20 13:09:00,46.0,31.6,30.28,NNW,328,6.0,10.0,57,0.00,,,0.00,Wunderground v.1.15,2013-04-20 17:09:00,
2013-04-20 13:14:00,46.7,32.7,30.28,West,277,6.0,10.0,58,0.00,,,0.00,Wunderground v.1.15,2013-04-20 17:14:00,
2013-04-20 13:19:00,46.8,31.5,30.28,NW,325,2.0,11.0,55,0.00,,,0.00,Wunderground v.1.15,2013-04-20 17:19:00,
2013-04-20 13:24:00,47.0,32.1,30.28,WSW,244,5.0,12.0,56,0.00,,,0.00,Wunderground v.1.15,2013-04-20 17:24:00,
2013-04-20 13:29:00,47.1,30.4,30.28,West,259,9.0,12.0,52,0.00,,,0.00,Wunderground v.1.15,2013-04-20 17:29:00,
2013-04-20 13:34:00,47.0,31.2,30.28,NW,317,0.0,14.0,54,0.00,,,0.00,Wunderground v.1.15,2013-04-20 17:34:00,
2013-04-20 13:39:00,47.1,31.3,30.28,West,261,8.0,14.0,54,0.00,,,0.00,Wunderground v.1.15,2013-04-20 17:39:00,
2013-04-20 13:45:00,47.2,30.5,30.28,West,263,0.0,9.0,52,0.00,,,0.00,Wunderground v.1.15,2013-04-20 17:45:00,
2013-04-20 13:50:00,46.8,30.6,30.28,West,263,6.0,6.0,53,0.00,,,0.00,Wunderground v.1.15,2013-04-20 17:50:00,
2013-04-20 13:55:00,46.9,30.6,30.28,WSW,244,5.0,12.0,53,0.00,,,0.00,Wunderground v.1.15,2013-04-20 17:55:00,
2013-04-20 14:00:00,47.1,30.8,30.28,West,267,3.0,6.0,53,0.00,,,0.00,Wunderground v.1.15,2013-04-20 18:00:00,
2013-04-20 14:05:00,47.9,32.5,30.29,WSW,252,2.0,10.0,55,0.00,,,0.01,Wunderground v.1.15,2013-04-20 18:05:00,
2013-04-20 14:10:00,48.3,31.5,30.29,WNW,290,7.0,10.0,52,0.00,,,0.01,Wunderground v.1.15,2013-04-20 18:10:00,
2013-04-20 14:15:00,48.0,31.2,30.29,NNW,335,0.0,10.0,52,0.00,,,0.01,Wunderground v.1.15,2013-04-20 18:15:00,
2013-04-20 14:21:00,47.7,30.9,30.29,West,277,3.0,4.0,52,0.00,,,0.01,Wunderground v.1.15,2013-04-20 18:21:00,
2013-04-20 14:26:00,47.4,31.1,30.29,West,266,6.0,10.0,53,0.00,,,0.01,Wunderground v.1.15,2013-04-20 18:26:00,
2013-04-20 14:31:00,48.3,31.9,30.29,WSW,249,0.0,4.0,53,0.00,,,0.01,Wunderground v.1.15,2013-04-20 18:31:00,
2013-04-20 14:36:00,48.2,31.4,30.29,WNW,284,8.0,8.0,52,0.00,,,0.01,Wunderground v.1.15,2013-04-20 18:36:00,
2013-04-20 14:41:00,47.5,30.7,30.29,North,360,0.0,9.0,52,0.00,,,0.01,Wunderground v.1.15,2013-04-20 18:41:00,
2013-04-20 14:46:00,47.2,30.0,30.30,WNW,294,3.0,9.0,51,0.00,,,0.01,Wunderground v.1.15,2013-04-20 18:46:00,
2013-04-20 14:52:00,47.8,30.5,30.30,NW,319,3.0,8.0,51,0.00,,,0.01,Wunderground v.1.15,2013-04-20 18:52:00,
2013-04-20 14:57:00,48.1,30.8,30.30,WNW,285,1.0,9.0,51,0.00,,,0.01,Wunderground v.1.15,2013-04-20 18:57:00,
2013-04-20 15:02:00,48.3,31.0,30.30,WNW,287,7.0,10.0,51,0.00,,,0.01,Wunderground v.1.15,2013-04-20 19:02:00,
2013-04-20 15:07:00,48.7,31.4,30.30,West,270,3.0,13.0,51,0.00,,,0.01,Wunderground v.1.15,2013-04-20 19:07:00,
2013-04-20 15:12:00,48.8,31.5,30.30,WSW,258,6.0,11.0,51,0.00,,,0.01,Wunderground v.1.15,2013-04-20 19:12:00,
2013-04-20 15:17:00,48.6,29.3,30.30,WSW,242,4.0,12.0,47,0.00,,,0.01,Wunderground v.1.15,2013-04-20 19:17:00,
2013-04-20 15:23:00,48.5,31.2,30.30,SW,219,1.0,11.0,51,0.00,,,0.01,Wunderground v.1.15,2013-04-20 19:23:00,
2013-04-20 15:28:00,49.7,31.3,30.30,NW,321,2.0,13.0,49,0.00,,,0.01,Wunderground v.1.15,2013-04-20 19:28:00,
2013-04-20 15:33:00,49.5,30.6,30.30,NNE,15,3.0,8.0,48,0.00,,,0.01,Wunderground v.1.15,2013-04-20 19:33:00,
2013-04-20 15:38:00,48.7,29.4,30.31,West,267,3.0,10.0,47,0.00,,,0.01,Wunderground v.1.15,2013-04-20 19:38:00,
2013-04-20 15:43:00,49.4,31.0,30.30,West,271,7.0,10.0,49,0.00,,,0.01,Wunderground v.1.15,2013-04-20 19:43:00,
2013-04-20 15:48:00,48.8,31.5,30.31,NE,51,6.0,16.0,51,0.00,,,0.01,Wunderground v.1.15,2013-04-20 19:48:00,
2013-04-20 15:53:00,48.4,29.6,30.30,West,275,0.0,10.0,48,0.00,,,0.01,Wunderground v.1.15,2013-04-20 19:53:00,
2013-04-20 15:58:00,48.6,29.8,30.30,NNW,335,3.0,11.0,48,0.00,,,0.01,Wunderground v.1.15,2013-04-20 19:58:00,
2013-04-20 16:03:00,49.3,29.9,30.30,West,274,2.0,9.0,47,0.00,,,0.01,Wunderground v.1.15,2013-04-20 20:03:00,
2013-04-20 16:08:00,48.9,29.0,30.31,SW,218,2.0,13.0,46,0.00,,,0.01,Wunderground v.1.15,2013-04-20 20:08:00,
2013-04-20 16:14:00,49.7,31.3,30.31,NE,34,4.0,10.0,49,0.00,,,0.01,Wunderground v.1.15,2013-04-20 20:14:00,
2013-04-20 16:19:00,49.7,30.3,30.31,West,267,2.0,11.0,47,0.00,,,0.01,Wunderground v.1.15,2013-04-20 20:19:00,
2013-04-20 16:24:00,49.8,30.9,30.30,NNE,19,5.0,11.0,48,0.00,,,0.01,Wunderground v.1.15,2013-04-20 20:24:00,
2013-04-20 16:29:00,50.0,32.6,30.30,NW,320,5.0,13.0,51,0.00,,,0.01,Wunderground v.1.15,2013-04-20 20:29:00,
2013-04-20 16:35:00,50.4,32.9,30.30,WSW,246,1.0,10.0,51,0.00,,,0.01,Wunderground v.1.15,2013-04-20 20:35:00,
2013-04-20 16:40:00,50.4,30.9,30.30,WNW,300,1.0,4.0,47,0.00,,,0.01,Wunderground v.1.15,2013-04-20 20:40:00,
2013-04-20 16:45:00,49.8,30.9,30.30,North,350,6.0,11.0,48,0.00,,,0.01,Wunderground v.1.15,2013-04-20 20:45:00,
2013-04-20 16:50:00,49.2,29.3,30.30,NW,313,6.0,9.0,46,0.00,,,0.01,Wunderground v.1.15,2013-04-20 20:50:00,
2013-04-20 16:55:00,49.1,30.7,30.30,North,5,5.0,15.0,49,0.00,,,0.01,Wunderground v.1.15,2013-04-20 20:55:00,
2013-04-20 17:00:00,49.3,29.9,30.30,WNW,300,3.0,9.0,47,0.00,,,0.01,Wunderground v.1.15,2013-04-20 21:00:00,
2013-04-20 17:05:00,49.9,30.5,30.31,North,355,4.0,12.0,47,0.00,,,0.01,Wunderground v.1.15,2013-04-20 21:05:00,
2013-04-20 17:10:00,49.3,29.4,30.31,WNW,284,3.0,4.0,46,0.00,,,0.01,Wunderground v.1.15,2013-04-20 21:10:00,
2013-04-20 17:15:00,49.5,30.1,30.31,NNW,344,2.0,10.0,47,0.00,,,0.01,Wunderground v.1.15,2013-04-20 21:15:00,
2013-04-20 17:20:00,49.0,29.6,30.30,North,360,4.0,4.0,47,0.00,,,0.01,Wunderground v.1.15,2013-04-20 21:20:00,
2013-04-20 17:25:00,49.3,29.9,30.31,NW,312,1.0,7.0,47,0.00,,,0.01,Wunderground v.1.15,2013-04-20 21:25:00,
2013-04-20 17:31:00,49.8,29.8,30.31,WNW,288,1.0,5.0,46,0.00,,,0.01,Wunderground v.1.15,2013-04-20 21:31:00,
2013-04-20 17:36:00,49.8,30.4,30.31,North,350,3.0,11.0,47,0.00,,,0.01,Wunderground v.1.15,2013-04-20 21:36:00,
2013-04-20 17:41:00,49.9,31.0,30.31,NE,41,3.0,4.0,48,0.00,,,0.01,Wunderground v.1.15,2013-04-20 21:41:00,
2013-04-20 17:47:00,49.9,31.5,30.31,West,265,4.0,10.0,49,0.00,,,0.01,Wunderground v.1.15,2013-04-20 21:47:00,
2013-04-20 17:52:00,49.7,29.2,30.31,NNE,24,3.0,8.0,45,0.00,,,0.01,Wunderground v.1.15,2013-04-20 21:52:00,
2013-04-20 17:57:00,49.7,30.3,30.31,WNW,295,4.0,8.0,47,0.00,,,0.01,Wunderground v.1.15,2013-04-20 21:57:00,
2013-04-20 18:02:00,49.9,30.5,30.31,NE,36,6.0,6.0,47,0.00,,,0.01,Wunderground v.1.15,2013-04-20 22:02:00,
2013-04-20 18:07:00,49.8,30.4,30.32,ENE,75,4.0,6.0,47,0.00,,,0.01,Wunderground v.1.15,2013-04-20 22:07:00,
2013-04-20 18:12:00,49.3,29.4,30.32,WNW,289,3.0,11.0,46,0.00,,,0.01,Wunderground v.1.15,2013-04-20 22:12:00,
2013-04-20 18:17:00,49.0,29.1,30.32,NNW,346,1.0,11.0,46,0.00,,,0.01,Wunderground v.1.15,2013-04-20 22:17:00,
2013-04-20 18:22:00,49.1,30.2,30.32,NNW,341,1.0,7.0,48,0.00,,,0.01,Wunderground v.1.15,2013-04-20 22:22:00,
2013-04-20 18:28:00,49.5,29.6,30.32,NNW,344,2.0,9.0,46,0.00,,,0.01,Wunderground v.1.15,2013-04-20 22:28:00,
2013-04-20 18:33:00,49.6,29.6,30.32,SW,221,4.0,6.0,46,0.00,,,0.01,Wunderground v.1.15,2013-04-20 22:33:00,
2013-04-20 18:38:00,49.3,29.4,30.32,NNW,348,1.0,10.0,46,0.00,,,0.01,Wunderground v.1.15,2013-04-20 22:38:00,
2013-04-20 18:43:00,49.5,29.6,30.32,NNW,347,4.0,13.0,46,0.00,,,0.01,Wunderground v.1.15,2013-04-20 22:43:00,
2013-04-20 18:48:00,48.3,28.5,30.32,North,355,4.0,13.0,46,0.00,,,0.01,Wunderground v.1.15,2013-04-20 22:48:00,
2013-04-20 18:53:00,48.6,29.3,30.32,NNE,32,10.0,10.0,47,0.00,,,0.01,Wunderground v.1.15,2013-04-20 22:53:00,
2013-04-20 18:59:00,48.3,29.5,30.32,North,355,6.0,11.0,48,0.00,,,0.01,Wunderground v.1.15,2013-04-20 22:59:00,
2013-04-20 19:04:00,48.6,30.8,30.32,NW,307,3.0,8.0,50,0.00,,,0.01,Wunderground v.1.15,2013-04-20 23:04:00,
2013-04-20 19:10:00,48.5,29.2,30.32,SW,232,3.0,3.0,47,0.00,,,0.01,Wunderground v.1.15,2013-04-20 23:10:00,
2013-04-20 19:15:00,48.2,29.4,30.32,North,9,4.0,9.0,48,0.00,,,0.01,Wunderground v.1.15,2013-04-20 23:15:00,
2013-04-20 19:20:00,48.1,29.3,30.32,North,5,9.0,9.0,48,0.00,,,0.01,Wunderground v.1.15,2013-04-20 23:20:00,
2013-04-20 19:25:00,47.6,28.3,30.32,West,267,2.0,10.0,47,0.00,,,0.01,Wunderground v.1.15,2013-04-20 23:25:00,
2013-04-20 19:30:00,47.6,28.9,30.32,NNW,346,2.0,4.0,48,0.00,,,0.01,Wunderground v.1.15,2013-04-20 23:30:00,
2013-04-20 19:35:00,47.5,29.8,30.32,NNW,329,5.0,6.0,50,0.00,,,0.01,Wunderground v.1.15,2013-04-20 23:35:00,
2013-04-20 19:40:00,47.4,29.2,30.33,NW,324,2.0,3.0,49,0.00,,,0.01,Wunderground v.1.15,2013-04-20 23:40:00,
2013-04-20 19:45:00,47.2,29.5,30.33,North,5,1.0,6.0,50,0.00,,,0.01,Wunderground v.1.15,2013-04-20 23:45:00,
2013-04-20 19:50:00,47.0,28.8,30.33,North,11,4.0,5.0,49,0.00,,,0.01,Wunderground v.1.15,2013-04-20 23:50:00,
2013-04-20 19:55:00,46.7,29.5,30.33,NNE,25,2.0,8.0,51,0.00,,,0.01,Wunderground v.1.15,2013-04-20 23:55:00,
2013-04-20 20:00:00,46.3,29.6,30.33,NNE,22,1.0,4.0,52,0.00,,,0.01,Wunderground v.1.15,2013-04-21 00:00:00,
2013-04-20 20:05:00,46.1,29.0,30.33,NNE,19,3.0,5.0,51,0.00,,,0.01,Wunderground v.1.15,2013-04-21 00:05:00,
2013-04-20 20:10:00,45.9,28.8,30.33,North,5,0.0,2.0,51,0.00,,,0.01,Wunderground v.1.15,2013-04-21 00:10:00,
2013-04-20 20:15:00,45.7,29.5,30.34,North,5,1.0,4.0,53,0.00,,,0.01,Wunderground v.1.15,2013-04-21 00:15:00,
2013-04-20 20:20:00,45.4,29.3,30.34,NE,36,2.0,4.0,53,0.00,,,0.01,Wunderground v.1.15,2013-04-21 00:20:00,
2013-04-20 20:25:00,45.2,28.6,30.34,NNE,32,4.0,9.0,52,0.00,,,0.01,Wunderground v.1.15,2013-04-21 00:25:00,
2013-04-20 20:31:00,45.0,28.9,30.34,NNE,25,2.0,3.0,53,0.00,,,0.01,Wunderground v.1.15,2013-04-21 00:31:00,
2013-04-20 20:36:00,44.7,29.1,30.35,NNE,23,2.0,5.0,54,0.00,,,0.01,Wunderground v.1.15,2013-04-21 00:36:00,
2013-04-20 20:41:00,44.4,28.3,30.35,NE,53,0.0,5.0,53,0.00,,,0.01,Wunderground v.1.15,2013-04-21 00:41:00,
2013-04-20 20:46:00,44.2,28.6,30.35,NE,55,3.0,7.0,54,0.00,,,0.01,Wunderground v.1.15,2013-04-21 00:46:00,
2013-04-20 20:52:00,43.9,28.8,30.36,NE,55,2.0,3.0,55,0.00,,,0.01,Wunderground v.1.15,2013-04-21 00:52:00,
2013-04-20 20:57:00,43.8,28.7,30.36,ENE,57,4.0,6.0,55,0.00,,,0.01,Wunderground v.1.15,2013-04-21 00:57:00,
2013-04-20 21:02:00,43.6,28.9,30.37,NE,46,3.0,5.0,56,0.00,,,0.01,Wunderground v.1.15,2013-04-21 01:02:00,
2013-04-20 21:07:00,43.5,29.3,30.37,North,355,1.0,6.0,57,0.00,,,0.01,Wunderground v.1.15,2013-04-21 01:07:00,
2013-04-20 21:12:00,43.5,28.8,30.37,NE,52,3.0,6.0,56,0.00,,,0.01,Wunderground v.1.15,2013-04-21 01:12:00,
2013-04-20 21:17:00,43.4,29.2,30.37,NNE,29,2.0,6.0,57,0.00,,,0.01,Wunderground v.1.15,2013-04-21 01:17:00,
2013-04-20 21:22:00,43.3,28.6,30.38,NE,35,3.0,7.0,56,0.00,,,0.01,Wunderground v.1.15,2013-04-21 01:22:00,
2013-04-20 21:27:00,43.2,29.0,30.38,NE,55,3.0,7.0,57,0.00,,,0.01,Wunderground v.1.15,2013-04-21 01:27:00,
2013-04-20 21:32:00,42.9,28.7,30.38,NE,49,1.0,4.0,57,0.00,,,0.01,Wunderground v.1.15,2013-04-21 01:32:00,
2013-04-20 21:37:00,42.7,28.5,30.39,NE,50,2.0,4.0,57,0.00,,,0.01,Wunderground v.1.15,2013-04-21 01:37:00,
2013-04-20 21:42:00,42.4,29.1,30.39,NE,44,3.0,3.0,59,0.00,,,0.01,Wunderground v.1.15,2013-04-21 01:42:00,
2013-04-20 21:47:00,42.2,29.3,30.39,North,10,4.0,4.0,60,0.00,,,0.01,Wunderground v.1.15,2013-04-21 01:47:00,
2013-04-20 21:52:00,42.0,29.1,30.39,ENE,57,2.0,4.0,60,0.00,,,0.01,Wunderground v.1.15,2013-04-21 01:52:00,
2013-04-20 21:57:00,42.0,28.7,30.40,ENE,57,2.0,7.0,59,0.00,,,0.01,Wunderground v.1.15,2013-04-21 01:57:00,
2013-04-20 22:03:00,41.8,28.5,30.40,NNE,26,3.0,5.0,59,0.00,,,0.01,Wunderground v.1.15,2013-04-21 02:03:00,
2013-04-20 22:08:00,41.7,28.4,30.40,NE,51,2.0,7.0,59,0.00,,,0.01,Wunderground v.1.15,2013-04-21 02:08:00,
2013-04-20 22:13:00,41.7,28.8,30.40,NNE,31,1.0,9.0,60,0.00,,,0.01,Wunderground v.1.15,2013-04-21 02:13:00,
2013-04-20 22:18:00,41.6,28.7,30.40,NE,53,5.0,9.0,60,0.00,,,0.01,Wunderground v.1.15,2013-04-21 02:18:00,
2013-04-20 22:24:00,41.5,28.6,30.40,NNE,28,3.0,7.0,60,0.00,,,0.01,Wunderground v.1.15,2013-04-21 02:24:00,
2013-04-20 22:29:00,41.4,28.5,30.40,NE,55,1.0,7.0,60,0.00,,,0.01,Wunderground v.1.15,2013-04-21 02:29:00,
2013-04-20 22:34:00,41.2,28.4,30.41,NE,53,3.0,6.0,60,0.00,,,0.01,Wunderground v.1.15,2013-04-21 02:34:00,
2013-04-20 22:39:00,41.1,28.3,30.41,NE,51,3.0,6.0,60,0.00,,,0.01,Wunderground v.1.15,2013-04-21 02:39:00,
2013-04-20 22:44:00,40.9,28.5,30.41,NE,46,1.0,6.0,61,0.00,,,0.01,Wunderground v.1.15,2013-04-21 02:44:00,
2013-04-20 22:49:00,40.7,28.7,30.41,NE,43,1.0,6.0,62,0.00,,,0.01,Wunderground v.1.15,2013-04-21 02:49:00,
2013-04-20 22:54:00,40.5,28.5,30.41,NE,45,1.0,6.0,62,0.00,,,0.01,Wunderground v.1.15,2013-04-21 02:54:00,
2013-04-20 22:59:00,40.4,28.8,30.41,NE,49,2.0,6.0,63,0.00,,,0.01,Wunderground v.1.15,2013-04-21 02:59:00,
2013-04-20 23:04:00,40.3,28.3,30.41,NE,42,3.0,5.0,62,0.00,,,0.01,Wunderground v.1.15,2013-04-21 03:04:00,
2013-04-20 23:10:00,40.3,28.3,30.41,NE,49,4.0,4.0,62,0.00,,,0.01,Wunderground v.1.15,2013-04-21 03:10:00,
2013-04-20 23:15:00,40.2,28.2,30.42,ENE,57,4.0,6.0,62,0.00,,,0.01,Wunderground v.1.15,2013-04-21 03:15:00,
2013-04-20 23:20:00,40.1,28.1,30.42,ENE,60,3.0,3.0,62,0.00,,,0.01,Wunderground v.1.15,2013-04-21 03:20:00,
2013-04-20 23:25:00,40.1,28.1,30.42,NE,45,1.0,5.0,62,0.00,,,0.01,Wunderground v.1.15,2013-04-21 03:25:00,
2013-04-20 23:30:00,39.9,28.3,30.42,NE,46,2.0,3.0,63,0.00,,,0.01,Wunderground v.1.15,2013-04-21 03:30:00,
2013-04-20 23:35:00,39.7,28.1,30.43,North,5,0.0,3.0,63,0.00,,,0.01,Wunderground v.1.15,2013-04-21 03:35:00,
2013-04-20 23:40:00,39.7,28.5,30.43,ENE,57,1.0,1.0,64,0.00,,,0.01,Wunderground v.1.15,2013-04-21 03:40:00,
2013-04-20 23:45:00,39.5,27.9,30.43,ENE,57,5.0,5.0,63,0.00,,,0.01,Wunderground v.1.15,2013-04-21 03:45:00,
2013-04-20 23:50:00,39.5,28.3,30.43,NE,41,5.0,5.0,64,0.00,,,0.01,Wunderground v.1.15,2013-04-21 03:50:00,
2013-04-20 23:55:00,39.5,27.9,30.43,NE,47,3.0,6.0,63,0.00,,,0.01,Wunderground v.1.15,2013-04-21 03:55:00,